Torna al catalogo

COSMOS 2251 DEB

AttivoLEO
NORAD 37118·DEBRIS·🇷🇺 Russia

Lanciato Jun 16, 1993 da Plesetsk Cosmodrome

Loading…

Prossimi Passaggi (prossime 24 ore)

TLE

AggiornatoSource: Space-Track

Epoca: Sep 13, 2026, 08:54 UTC

1 37118U 93036BGQ 26256.37151057  .00007387  00000-0  86732-3 0  9995
2 37118  74.0105 259.8921 0008684 277.1985  82.8206 14.85062514696205

Traccia COSMOS 2251 DEB in tempo reale con AllMySat

Download on the App Store